Overview Statistics Trail Chart Weather Telemetry Raw packets
 

This is the latest recevied weather packets stored in our database for station/object E22ZMG-2. If no packets are shown the sender has not sent any weather packets the latest 10 day(s).

<< 30 31 32 33 34 35 36 >>
Time Temp. Humidity Pressure Rain* Wind** Luminosity Snow
1777091348 30.56° C 58% 929 hPa - - 0 W/m² -
1777090724 30.56° C 59% 929 hPa - - 0 W/m² -
1777090100 30.56° C 59% 929 hPa - - 0 W/m² -
1777089476 30.56° C 59% 929 hPa - - 0 W/m² -
1777088852 30° C 59% 929 hPa - - 0 W/m² -
1777088228 30.56° C 59% 929 hPa - - 0 W/m² -
1777087603 30.56° C 59% 929 hPa - - 0 W/m² -
1777086979 30.56° C 59% 929 hPa - - 0 W/m² -
1777086355 30° C 61% 929 hPa - - 0 W/m² -
1777085731 30° C 61% 929 hPa - - 0 W/m² -
1777085107 29.44° C 61% 929 hPa - - 0 W/m² -
1777084482 29.44° C 61% 929 hPa - - 0 W/m² -
1777083858 29.44° C 60% 929 hPa - - 0 W/m² -
1777083234 28.89° C 61% 929 hPa - - 0 W/m² -
1777082609 28.89° C 63% 929 hPa - - 0 W/m² -
1777081986 28.33° C 66% 929 hPa - - 0 W/m² -
1777081361 28.89° C 68% 929 hPa - - 0 W/m² -
1777080738 28.89° C 67% 929 hPa - - 0 W/m² -
1777080113 28.33° C 68% 929 hPa - - 0 W/m² -
1777079489 28.33° C 69% 929 hPa - - 0 W/m² -
1777078865 27.78° C 74% 929 hPa - - 0 W/m² -
1777078241 28.33° C 74% 929 hPa - - 0 W/m² -
1777077617 27.78° C 73% 928 hPa - - 0 W/m² -
1777076993 27.78° C 73% 928 hPa - - 0 W/m² -
1777076369 27.78° C 74% 928 hPa - - 0 W/m² -

* Rain since midnight (hover to see other rain measurements)
** Current wind speed in m/s (hover to see current wind gust speed)